Location: Pcim
(49.7500°N, 19.9670°E)
Time: 03:32:43
(UTC+02:00)

ITUPSAT 1 - Visible Passes

Search period start: 13 July 2024 00:00
Search period end: 23 July 2024 00:00
Orbit: 695 x 705 km, 98.5° (Epoch: 12 July)

Date Brightness Start Highest point End Pass type
(mag) Time Alt. Az. Time Alt. Az. Time Alt. Az.
13 Jul ? 00:37:35 10° NNW 00:40:46 18° WNW 00:43:56 10° W visible
13 Jul ? 22:03:45 10° NE 22:07:40 25° E 22:10:35 15° SE visible
13 Jul ? 23:40:59 10° N 23:45:34 47° WNW 23:49:24 14° SW visible
14 Jul ? 22:45:13 10° NNE 22:49:56 57° E 22:53:01 21° S visible
15 Jul ? 00:23:33 10° N 00:27:15 23° WNW 00:30:55 10° WSW visible
15 Jul ? 21:50:28 10° NE 21:53:50 19° E 21:56:38 12° SE visible
15 Jul ? 23:27:12 10° N 23:31:56 63° WNW 23:35:27 18° SSW visible
16 Jul ? 01:07:18 10° NW 01:08:41 11° NW 01:10:04 10° WNW visible
16 Jul ? 22:31:38 10° NNE 22:36:11 43° E 22:39:03 20° SSE visible
17 Jul ? 00:09:37 10° N 00:13:42 29° WNW 00:17:45 10° WSW visible
17 Jul ? 21:37:25 10° NE 21:39:59 14° E 21:42:30 10° ESE visible
17 Jul ? 23:13:28 10° NNE 23:18:16 82° WNW 23:21:29 21° SSW visible
18 Jul ? 00:52:43 10° NNW 00:55:12 14° NW 00:57:40 10° W visible
18 Jul ? 22:18:06 10° NNE 22:22:24 32° E 22:25:04 19° SSE visible
18 Jul ? 23:55:44 10° N 00:00:06 37° WNW 00:03:55 13° SW visible
19 Jul ? 21:25:12 10° ENE 21:26:03 10° E 21:26:55 10° E visible
19 Jul ? 22:59:46 10° NNE 23:04:33 76° ESE 23:07:29 23° S visible
20 Jul ? 00:38:31 10° NNW 00:41:41 18° WNW 00:44:51 10° W visible
20 Jul ? 22:04:40 10° NE 22:08:34 25° E 22:11:04 16° SE visible
20 Jul ? 23:41:53 10° N 23:46:28 47° WNW 23:49:54 17° SW visible
21 Jul ? 22:46:06 10° NNE 22:50:49 57° E 22:53:28 25° S visible
22 Jul ? 00:24:27 10° N 00:28:07 23° WNW 00:31:47 10° WSW visible
22 Jul ? 21:51:21 10° NE 21:54:43 19° E 21:57:03 14° SE visible
22 Jul ? 23:28:05 10° N 23:32:48 63° WNW 23:35:52 21° SW visible
